CW1490 Weather Reports


Display with metric or nautical units.
time (UTC)temp
F
wind
direction
speed
MPH
gust
MPH
rain 1hr
in
rain 24hr
in
rain mn
in
humidity
%
barometer
mb
20180122120025 31 354 0.0 0.0 0.00 0.00 0.00 94 1022.8
20180122114522 31 354 0.0 0.0 0.00 0.00 0.00 94 1022.5
20180122113022 31 354 0.0 0.0 0.00 0.00 0.00 94 1022.3
20180122111519 31 354 0.0 0.0 0.00 0.00 0.00 94 1022.1
20180122110121 31 354 0.0 0.0 0.00 0.00 0.00 94 1022.0
20180122104517 31 354 0.0 0.0 0.00 0.00 0.00 94 1022.0
20180122103017 31 354 0.0 0.0 0.00 0.00 0.00 94 1021.8
20180122101516 31 354 0.0 0.0 0.00 0.00 0.00 94 1021.9
20180122100016 31 354 0.0 0.0 0.00 0.00 0.00 94 1021.7
20180122094519 31 354 0.0 0.0 0.00 0.00 0.00 94 1021.7
20180122093015 30 354 0.0 0.0 0.00 0.00 0.00 94 1021.8
20180122091514 30 354 0.0 0.0 0.00 0.00 0.00 94 1021.8
20180122090014 30 354 0.0 0.0 0.00 0.00 0.00 94 1021.6
20180122084511 30 354 0.0 0.0 0.00 0.00 0.00 94 1021.4
20180122083013 30 291 0.0 0.0 0.00 0.00 0.00 94 1021.8
20180122081510 30 291 0.0 0.0 0.00 0.00 0.00 95 1021.7
20180122080009 30 287 0.0 0.0 0.00 0.00 0.00 95 1021.8
20180122074508 30 273 0.0 0.0 0.00 0.00 0.00 95 1021.9
20180122073008 30 203 0.0 0.0 0.00 0.00 0.00 95 1021.6
20180122071507 30 203 0.0 0.0 0.00 0.00 0.00 95 1021.7
20180122070005 30 203 0.0 0.0 0.00 0.00 0.00 95 1021.5
20180122064508 30 203 0.0 0.0 0.00 0.00 0.00 95 1021.4
20180122063008 29 203 0.0 0.0 0.00 0.00 0.00 95 1021.6
20180122061503 30 203 0.0 0.0 0.00 0.00 0.00 95 1021.4
20180122060002 29 203 0.0 0.0 0.00 0.00 0.00 95 1021.3
20180122054502 29 203 0.0 0.0 0.00 0.00 0.00 95 1021.5
20180122052959 29 203 0.0 0.0 0.00 0.00 0.00 95 1021.4
20180122051459 28 203 0.0 0.0 0.00 0.00 0.00 95 1021.4
20180122045956 29 203 0.0 0.0 0.00 0.00 0.00 95 1021.7
20180122044654 28 203 0.0 0.0 0.00 0.00 0.00 95 1021.7
20180122042954 28 203 0.0 0.0 0.00 0.00 0.00 95 1021.9
20180122041454 28 203 0.0 0.0 0.00 0.00 0.00 95 1021.9
20180122035953 27 203 0.0 0.0 0.00 0.00 0.00 95 1022.0
20180122034454 27 203 0.0 0.0 0.00 0.00 0.00 95 1021.8
20180122032951 27 203 0.0 0.0 0.00 0.00 0.00 95 1021.8
20180122031451 27 203 0.0 0.0 0.00 0.00 0.00 95 1021.9
20180122025951 28 203 0.0 0.0 0.00 0.00 0.00 94 1021.8
20180122024452 27 203 0.0 0.0 0.00 0.00 0.00 94 1021.9
20180122022948 28 203 0.0 0.0 0.00 0.00 0.00 94 1021.8
20180122021447 28 203 0.0 0.0 0.00 0.00 0.00 94 1021.7
20180122015947 28 203 0.0 0.0 0.00 0.00 0.00 94 1021.6
20180122014445 28 203 0.0 0.0 0.00 0.00 0.00 94 1021.6
20180122012945 29 203 0.0 0.0 0.00 0.00 0.00 94 1021.5
20180122011446 29 203 0.0 0.0 0.00 0.00 0.00 94 1021.5
20180122005944 29 203 0.0 0.0 0.00 0.00 0.00 94 1021.4
20180122004443 29 203 0.0 0.0 0.00 0.00 0.00 93 1021.3
20180122002943 29 203 0.0 0.0 0.00 0.00 0.00 93 1021.4
20180122001442 30 203 0.0 0.0 0.00 0.00 0.00 92 1021.3
20180121235944 30 203 0.0 0.0 0.00 0.00 0.00 91 1021.1
20180121234441 31 203 0.0 0.0 0.00 0.00 0.00 90 1021.1
20180121232943 31 203 0.0 0.0 0.00 0.00 0.00 90 1021.2
20180121231440 33 203 0.0 0.0 0.00 0.00 0.00 88 1021.2
20180121225940 34 203 0.0 0.0 0.00 0.00 0.00 87 1020.8
20180121224439 33 203 0.0 2.0 0.00 0.00 0.00 87 1020.8
20180121222941 34 203 0.0 1.0 0.00 0.00 0.00 85 1020.6
20180121221442 35 202 0.0 1.0 0.00 0.00 0.00 84 1020.4
20180121215938 36 202 0.0 2.0 0.00 0.00 0.00 83 1020.1
20180121214437 37 202 1.0 3.0 0.00 0.00 0.00 81 1019.9
20180121213138 38 169 0.0 2.0 0.00 0.00 0.00 77 1019.7
20180121211437 40 110 0.0 0.0 0.00 0.00 0.00 72 1019.6
20180121205937 42 110 0.0 0.0 0.00 0.00 0.00 68 1019.5
20180121204437 43 110 0.0 0.0 0.00 0.00 0.00 66 1019.3
20180121202935 44 113 1.0 2.0 0.00 0.00 0.00 63 1019.3
20180121201436 45 145 0.0 3.0 0.00 0.00 0.00 62 1019.2
20180121195934 45 187 0.0 2.0 0.00 0.00 0.00 62 1019.2
20180121194433 45 197 2.0 5.0 0.00 0.00 0.00 62 1019.0
20180121192935 45 33 0.0 3.0 0.00 0.00 0.00 63 1019.2
20180121191429 45 23 1.0 4.0 0.00 0.00 0.00 64 1019.1
20180121185929 45 29 4.0 5.0 0.00 0.00 0.00 63 1019.2
20180121184428 45 32 3.0 6.0 0.00 0.00 0.00 64 1019.1
20180121182927 44 31 5.0 8.0 0.00 0.00 0.00 66 1019.0
20180121181425 44 44 2.0 5.0 0.00 0.00 0.00 64 1019.0
20180121175924 45 210 0.0 5.0 0.00 0.00 0.00 65 1019.2
20180121174423 43 151 1.0 4.0 0.00 0.00 0.00 70 1019.3
20180121172917 42 78 0.0 4.0 0.00 0.00 0.00 73 1019.6
20180121171416 40 21 2.0 3.0 0.00 0.00 0.00 79 1019.6
20180121165911 37 196 2.0 3.0 0.00 0.00 0.00 84 1019.9
20180121164411 36 196 0.0 0.0 0.00 0.00 0.00 85 1020.1
20180121162909 35 196 1.0 2.0 0.00 0.00 0.00 87 1020.4
20180121161405 34 196 2.0 4.0 0.00 0.00 0.00 89 1020.8
20180121155902 33 214 1.0 3.0 0.00 0.00 0.00 91 1021.1
20180121154400 32 214 2.0 4.0 0.00 0.00 0.00 92 1021.2
20180121152856 32 213 2.0 4.0 0.00 0.00 0.00 93 1021.2
20180121151353 31 195 2.0 4.0 0.00 0.00 0.00 94 1021.2
20180121145851 30 197 1.0 6.0 0.00 0.00 0.00 95 1020.9
20180121144349 29 166 2.0 5.0 0.00 0.00 0.00 95 1020.7
20180121142843 29 158 2.0 4.0 0.00 0.00 0.00 95 1020.5
20180121141540 28 280 0.0 3.0 0.00 0.00 0.00 95 1020.3
20180121135836 27 316 0.0 0.0 0.00 0.00 0.00 95 1020.1
20180121134333 27 317 0.0 0.0 0.00 0.00 0.00 95 1019.9
20180121132831 26 317 0.0 0.0 0.00 0.00 0.00 95 1019.7
20180121131333 26 317 0.0 0.0 0.00 0.00 0.00 95 1019.6
20180121125831 25 317 0.0 0.0 0.00 0.00 0.00 95 1019.3
20180121124326 25 317 0.0 0.0 0.00 0.00 0.00 95 1019.3
20180121122820 24 319 0.0 0.0 0.00 0.00 0.00 95 1019.0
20180121121318 24 319 0.0 0.0 0.00 0.00 0.00 94 1018.7